Regional Weather Roundup
Issued by NWS

Home | Current Version | Previous Version | Graphics & Text | Print | Product List | Glossary On
Versions: 1 2 3 4 5 6 7 8 9 10 11 12 13 14 15 16 17 18 19 20 21 22 23 24 25 26 27 28 29 30 31 32 33 34 35 36 37 38 39 40 41 42 43 44 45 46 47 48 49 50
046
ASUS43 KOAX 261910
RWRNE

WEATHER ROUNDUP FOR NEBRASKA
NATIONAL WEATHER SERVICE OMAHA NE
200 PM CDT MON SEP 26 2016

NOTES: SATELLITE DATA IS BEING USED TO AUGMENT CLOUD COVER ABOVE
       12000 FEET.
       "FAIR" INDICATES FEW OR NO CLOUDS BELOW 12,000 FEET WITH NO
       SIGNIFICANT WEATHER AND/OR OBSTRUCTIONS TO VISIBILITY.

  * THESE STATIONS DO NOT REPORT WEATHER SUCH AS RAIN...SNOW OR FOG.

NEZ001>004-019>022-054>056-262000-
NEBRASKA PANHANDLE

CITY           SKY/WX    TMP DP  RH WIND       PRES   REMARKS
SCOTTSBLUFF    SUNNY     72  39  30 W5G17     30.32F
ALLIANCE       SUNNY     72  38  29 N17G24    30.29F
CHADRON        SUNNY     72  39  30 W18G26    30.28F
KIMBALL        SUNNY     70  40  33 NW9G17    30.37S
SIDNEY         LGT RAIN  72  38  29 N13       30.34F
$$

NEZ057>060-069>072-079>082-262000-
SOUTHWEST NEBRASKA

CITY           SKY/WX    TMP DP  RH WIND       PRES   REMARKS
NORTH PLATTE   SUNNY     77  39  25 NW15      30.24F
IMPERIAL       SUNNY     76  33  21 NW14G20   30.28F
LEXINGTON      SUNNY     75  36  24 W16G22    30.24F
MCCOOK         SUNNY     75  37  25 W10G20    30.26F
OGALLALA       SUNNY     76  36  23 N13G22    30.28F
$$

NEZ005>010-023>029-035>040-094-262000-
NORTH CENTRAL NEBRASKA

CITY           SKY/WX    TMP DP  RH WIND       PRES   REMARKS
VALENTINE      SUNNY     73  35  25 N14G23    30.21F
AINSWORTH      SUNNY     71  39  31 NW20G25   30.22F
BROKEN BOW     SUNNY     76  36  23 NW17G26   30.21F
O`NEILL        SUNNY     73  33  22 NW12G24   30.18F
ORD            SUNNY     75  36  24 W18G25    30.18F
THEDFORD       SUNNY     75  40  28 NW15G25   30.24F
$$

NEZ041-046>049-061>064-073>077-083>087-262000-
SOUTH CENTRAL NEBRASKA

CITY           SKY/WX    TMP DP  RH WIND       PRES   REMARKS
GRAND ISLAND   SUNNY     75  35  23 W18G25    30.21F
AURORA         SUNNY     74  36  24 W14       30.21F
HASTINGS       SUNNY     72  33  24 SW17      30.24F
HEBRON         SUNNY     73  34  24 W13G18    30.24F
HOLDREGE       SUNNY     73  31  21 W10G23    30.24F
KEARNEY *      SUNNY     73  32  21 W17G23    30.22F
YORK           SUNNY     73  36  25 W15G22    30.21F
$$

NEZ011>018-030>034-042>045-262000-
NORTHEAST NEBRASKA

CITY           SKY/WX    TMP DP  RH WIND       PRES   REMARKS
NORFOLK        SUNNY     73  36  25 W13G25    30.16F
ALBION         SUNNY     73  36  26 W15G22    30.19F
BLAIR          SUNNY     73  41  30 NW18G28   30.15F
FREMONT        MOSUNNY   74  41  30 NW13G21   30.17F
TEKAMAH        SUNNY     74  39  28 W20G29    30.14F
WAYNE          MOSUNNY   72  43  34 NW14      30.16F
$$

NEZ050>053-065>068-078-088>093-262000-
SOUTHEAST NEBRASKA

CITY           SKY/WX    TMP DP  RH WIND       PRES   REMARKS
LINCOLN        SUNNY     76  36  23 W17G25    30.20F
OMAHA EPPLEY   MOSUNNY   75  41  29 W17G24    30.15F
BEATRICE       SUNNY     75  42  30 W16       30.21F
FALLS CITY     SUNNY     73  44  35 W14G22    30.20F
NEBRASKA CITY  SUNNY     73  25  17 NW20G26   30.19F
PLATTSMOUTH    SUNNY     74  31  20 W17G23    30.17F
$$

NEZ044-045-051>053-067-262000-
OMAHA AREA

CITY           SKY/WX    TMP DP  RH WIND       PRES   REMARKS
OMAHA EPPLEY   MOSUNNY   75  41  29 W17G24    30.15F
BLAIR          SUNNY     73  41  30 NW18G28   30.15F
FREMONT        MOSUNNY   74  41  30 NW13G21   30.17F
MILLARD        SUNNY     73  41  31 W16G23    30.16F
OFFUTT AFB     SUNNY     73  41  30 W16G25    30.16F
PLATTSMOUTH    SUNNY     74  31  20 W17G23    30.17F
WAHOO          FAIR      74  37  26 W12G25    30.17F
$$




USA.gov is the U.S. government's official web portal to all federal, state and local government web resources and services.